Tracking 20941 objects as of 2-Jul-2020
HD Live streaming from Space Station
objects crossing your sky now

DELTA 1 DEB

Track DELTA 1 DEB now!
10-day predictions


NORAD ID: 7907
Int'l Code: 1972-058BS
Perigee: 681.1 km
Apogee: 1,090.3 km
Inclination: 97.7 °
Period: 102.5 minutes
Semi major axis: 7256 km
RCS: 0.1507 m2 (medium)
Launch date: July 23, 1972
Source: United States (US)
Launch site: AIR FORCE WESTERN TEST RANGE (AFWTR)

Note: This is SATELLITE DEBRIS
aabbcc
Your satellite tracking list
Your tracking list is empty




NASA's NSSDC Master Catalog

Two Line Element Set (TLE):
1  7907U 72058BS  20184.46207685 -.00000560 +00000-0 -23155-3 0  9990
2  7907 097.7313 262.3735 0281928 052.9484 309.7116 14.04405236273823
Source of the keplerian elements: AFSPC